Weather History for Cordova, AK

Change the Weather History Date:

Monday, October 1, 2012

  Actual Average Record
Temperature  
Mean Temperature 38 °F -  
Max Temperature 51 °F 50 °F 70 °F (1954)
Min Temperature 26 °F 38 °F 21 °F (2000)
Degree Days  
Heating Degree Days 27    
Moisture  
Dew Point 29 °F    
Average Humidity 79    
Maximum Humidity 96    
Minimum Humidity 46    
Precipitation  
Precipitation 0.00 in - - ()
Sea Level Pressure  
Sea Level Pressure 30.22 in    
Wind  
Wind Speed 0 mph (WSW)    
Max Wind Speed 5 mph    
Max Gust Speed -    
Visibility 10 miles    
Events      
Averages and records for this station are not official NWS values.
T = Trace of Precipitation, MM = Missing Value Source: NWS Daily Summary

Daily Weather History Graph

Daily Weather History Graph

Search for Another Location

Airport:

Trip Planner

Search our weather history database for the weather conditions in past years. The results will help you decide how hot, cold, wet, or windy it might be!

Date:

Astronomy

Oct. 01, 2012 Rise Set
Actual Time 7:49 AM AKDT 7:11 PM AKDT
Civil Twilight 7:07 AM AKDT 7:53 PM AKDT
Nautical Twilight 6:17 AM AKDT 8:42 PM AKDT
Astronomical Twilight 5:25 AM AKDT 9:34 PM AKDT
Moon 7:07 PM AKDT (10/1) 10:09 AM AKDT (10/1)
Length of Visible Light 12h 46m
Length of Day
11h 22m
Full, 97% of the Moon is Illuminated
Oct 1
Full
Oct 7
Last Quarter
Oct 15
New
Oct 21
First Quarter
Oct 29
Full

Hourly Weather History & Observations

Time (AKDT) Temp. Windchill Dew Point Humidity Pressure Visibility Wind Dir Wind Speed Gust Speed Precip Events Conditions
12:53 AM 28.9 °F - 28.0 °F 96% 30.03 in 10.0 mi Calm Calm - N/A   Clear
1:53 AM 28.9 °F - 28.0 °F 96% 30.04 in 10.0 mi Calm Calm - N/A   Partly Cloudy
2:53 AM 28.0 °F - 27.0 °F 96% 30.03 in 10.0 mi Calm Calm - N/A   Clear
3:53 AM 28.9 °F - 27.0 °F 92% 30.04 in 10.0 mi Calm Calm - N/A   Clear
4:53 AM 27.0 °F - 25.0 °F 92% 30.05 in 10.0 mi Calm Calm - N/A   Clear
5:53 AM 28.0 °F - 26.1 °F 92% 30.06 in 10.0 mi Calm Calm - N/A   Partly Cloudy
6:53 AM 26.1 °F - 24.1 °F 92% 30.09 in 10.0 mi Calm Calm - N/A   Scattered Clouds
7:53 AM 27.0 °F 23.0 °F 25.0 °F 92% 30.12 in 10.0 mi NNW 3.5 mph - N/A   Partly Cloudy
8:53 AM 30.0 °F - 28.0 °F 92% 30.14 in 10.0 mi Calm Calm - N/A   Scattered Clouds
9:53 AM 35.1 °F - 30.9 °F 85% 30.16 in 10.0 mi Calm Calm - N/A   Partly Cloudy
10:53 AM 41.0 °F - 30.9 °F 67% 30.19 in 10.0 mi Calm Calm - N/A   Partly Cloudy
11:53 AM 46.0 °F - 28.9 °F 51% 30.21 in 10.0 mi Calm Calm - N/A   Partly Cloudy
12:53 PM 46.9 °F - 30.0 °F 52% 30.23 in 10.0 mi Calm Calm - N/A   Partly Cloudy
2:53 PM 50.0 °F - 30.0 °F 46% 30.27 in 10.0 mi Calm Calm - N/A   Scattered Clouds
3:53 PM 50.0 °F - 33.1 °F 52% 30.29 in 10.0 mi SSW 4.6 mph - N/A   Partly Cloudy
4:53 PM 48.0 °F - 34.0 °F 58% 30.32 in 10.0 mi SSW 4.6 mph - N/A   Scattered Clouds
5:53 PM 48.0 °F - 32.0 °F 54% 30.34 in 10.0 mi Calm Calm - N/A   Scattered Clouds
6:53 PM 42.1 °F - 33.1 °F 70% 30.35 in 10.0 mi Calm Calm - N/A   Scattered Clouds
7:53 PM 37.0 °F - 30.0 °F 76% 30.38 in 10.0 mi Calm Calm - N/A   Scattered Clouds
8:53 PM 33.1 °F - 30.9 °F 92% 30.40 in 10.0 mi Calm Calm - N/A   Scattered Clouds
9:53 PM 30.9 °F - 28.9 °F 92% 30.42 in 10.0 mi Calm Calm - N/A   Scattered Clouds
10:53 PM 30.9 °F - 28.9 °F 92% 30.44 in 10.0 mi Calm Calm - N/A   Mostly Cloudy
11:53 PM 30.0 °F - 28.0 °F 92% 30.46 in 10.0 mi Calm Calm - N/A   Mostly Cloudy